Regional Weather Roundup
Issued by NWS Grand Forks, ND

Home | Current Version | Previous Version | Text Only | Print | Product List | Glossary On
Versions: 1 2 3 4 5 6 7 8 9 10 11 12 13 14 15 16 17 18 19 20 21 22 23 24 25 26 27 28 29 30 31 32 33 34 35 36 37 38 39 40 41 42 43 44 45 46 47 48 49 50
000
ASUS43 KFGF 252031
RWRFGF
PRAIRIE TO PINES  WEATHER ROUNDUP
NATIONAL WEATHER SERVICE EASTERN NORTH DAKOTA/GRAND FORKS ND
300 PM CDT SAT APR 25 2015

 **SATELLITE DATA USED TO AUGMENT SKY COVER AT AUTOMATED STATIONS**
 *****  WEATHER ACROSS EASTERN NORTH DAKOTA  *****

CITY           SKY/WX    TMP DP  RH WIND       PRES   REMARKS
GRAND FORKS    MOSUNNY   62  38  40 S14       29.87F
GRAND FRKS AFB PTSUNNY   60  38  43 S8G21     29.88S
GRAND FRKS NWS   N/A     63 N/A N/A SE13        N/A
DEVILS LAKE    CLOUDY    52  37  58 SE17      29.86S
FARGO          CLOUDY    56  39  53 SE9       29.88S
WAHPETON ARPT  CLOUDY    54  36  50 SE14      29.87F
$$

 ***** WEATHER ACROSS CENTRAL AND WESTERN NORTH DAKOTA  *****

CITY           SKY/WX    TMP DP  RH WIND       PRES   REMARKS
BISMARCK       CLOUDY    49  42  77 SE16      29.82S
MINOT          CLOUDY    56  39  53 E16       29.80S
JAMESTOWN      CLOUDY    48  40  73 SE13      29.86R
MINOT AFB      CLOUDY    56  43  61 SE17      29.79S
GARRISON         N/A     56  41  57 SE16      29.79S
WILLISTON      CLOUDY    51  42  71 SE16      29.75S
DICKINSON      CLOUDY    48  42  80 SE18      29.74R
HETTINGER      CLOUDY    46  43  89 SE14      29.77R FOG
$$

 *****  OTHER AIRPORT OBSERVATIONS IN OUR AREA  *****

CITY           SKY/WX    TMP DP  RH WIND       PRES   REMARKS
WALHALLA       FAIR      59  37  44 SE17G24   29.88S
GRAFTON AIRPOR FAIR      63  37  39 SE12G24   29.88S
VALLEY CITY AR CLOUDY    48  43  81 SE13      29.87S
CANDO          CLOUDY    54  37  54 SE13G24   29.87R
CAVALIER APRT  FAIR      61  36  39 SE12G21   29.87F
GWINNER        CLOUDY    48  45  87 E12       29.88S
SHEYENNE NWR     N/A     50  40  69 E10       29.95S
ROLLA          CLOUDY    54  37  54 SE16G23   29.87R
 ***** THE ABOVE OBSERVATIONS ARE NON NWS ARE NOT QUALITY
       CONTROLLED AND MAY MIS-REPORT RAIN FOR SNOW...
$$

  *****  WEATHER ACROSS NORTHERN MINNESOTA  *****

CITY           SKY/WX    TMP DP  RH WIND       PRES   REMARKS
FLAG ISLAND    SUNNY     54  27  35 E9        29.95F
WARROAD        SUNNY     54  32  43 NE15      29.95S
ROSEAU         SUNNY     61  30  31 E17G24    29.92S
HALLOCK        MOSUNNY   64  30  27 SE14G23   29.88S
THF RVR FALLS  MOSUNNY   61  34  36 SE10G16   29.89S
BAUDETTE       SUNNY     59  28  30 SE13G22   29.94F
WASKISH        SUNNY     63  34  34 E9        29.91F
CROOKSTON      MOSUNNY   63  37  39 SE12      29.88S
$$
  *****  WEATHER ACROSS CENTRAL AND WEST MINNESOTA  *****

CITY           SKY/WX    TMP DP  RH WIND       PRES   REMARKS
FOSSTON        SUNNY     61  32  33 SE13G18   29.89F
BEMIDJI        SUNNY     57  31  37 E12G20    29.91F
PARK RAPIDS    SUNNY     59  28  30 E15G21    29.89S
ELBOW LAKE     CLOUDY    53  40  61 E14       29.86F
WADENA         SUNNY     57  36  44 E13       29.88S
DETROIT LAKES  SUNNY     57  34  41 SE14G20   29.88S
MOORHEAD       SUNNY     55  37  50 S10       29.89S
FERGUS FALLS   MOSUNNY   55  36  47 SE7       29.88S
MORRIS MN      PTSUNNY   55  45  67 E13       29.85S
STAPLES        SUNNY     55  34  44 E8        29.89S
$$
  *****  WEATHER ELSEWHERE ACROSS MINNESOTA  *****

CITY           SKY/WX    TMP DP  RH WIND       PRES   REMARKS
DULUTH         MOSUNNY   49  24  37 E18       29.96S
INTRNTL FALLS  SUNNY     55  26  32 NE13      29.97S
ELY            PTSUNNY   52  14  22 N7        29.95F
CLOQUET        SUNNY     48  25  40 E13G18    29.95R
WHEATON        MOSUNNY   50  43  76 E12       29.88F
BRAINERD       SUNNY     54  32  43 E6G16     29.91S
HIBBING        FAIR      56  23  27 E8        29.94F
ALEXANDRIA     CLOUDY    54  39  57 E16       29.88R
SAINT CLOUD    MOSUNNY   57  35  43 N10       29.87R
MINNEAPOLIS    MOSUNNY   59  34  39 E17       29.83S
$$

  *****  WEATHER ACROSS SOUTH DAKOTA  *****

CITY           SKY/WX    TMP DP  RH WIND       PRES   REMARKS
SIOUX FALLS    CLOUDY    59  43  55 E17G24    29.78R
BROOKINGS      CLOUDY    54  43  66 E15       29.81S
WATERTOWN      CLOUDY    49  41  74 E14       29.83R
HURON          CLOUDY    62  45  53 SE13G20   29.78S
SISSETON         N/A     47  42  83 E9        29.86S
ABERDEEN       CLOUDY    49  43  80 E13       29.84S
MITCHELL       CLOUDY    57  48  72 E9        29.79R
PIERRE         CLOUDY    53  48  83 SE12      29.76S
MOBRIDGE       CLOUDY    53  44  71 SE10      29.77R
RAPID CITY     CLOUDY    51  46  83 SE13      29.70F
$$

  *****  SOME WEATHER IN NEARBY STATES *****

CITY           SKY/WX    TMP DP  RH WIND       PRES   REMARKS
GLASGOW MT     RAIN      43  41  93 NW10      29.73R FOG
GREAT FALLS MT CLOUDY    50  27  40 N7        29.80S
CHEYENNE WY    PTSUNNY   61  29  29 SW13      29.73F
SCOTTSBLUFF NE PTSUNNY   71  37  28 NW9       29.68F
OMAHA NE       CLOUDY    52  46  80 N12       29.70S
DES MOINES IA  CLOUDY    49  44  83 NE16      29.69R
DAVENPORT IA   CLOUDY    50  43  77 NE22G28   29.68R
CHICAGO IL     CLOUDY    47  42  83 E16       29.72F
EAU CLAIRE WI  MOSUNNY   59  19  21 E16G24    29.83F
LA CROSSE WI   CLOUDY    56  34  43 E13G21    29.82R
$$

  *****  SOME NATIONAL WEATHER *****

CITY           SKY/WX    TMP DP  RH WIND       PRES   REMARKS
LA GUARDIA NY  MOSUNNY   58  22  24 W10       29.72F
RALEIGH NC     LGT RAIN  55  55 100 S3        29.74F VSB 1
ATLANTA GA     CLOUDY    77  65  66 W10G20    29.72F
NEW ORLEANS LA LGT RAIN  71  66  84 N8        29.84F
OKLAHOMA CITY  SUNNY     82  50  32 SW13      29.64F
ALBUQUERQUE NM PTSUNNY   64  31  28 S5        29.87F
SALT LAKE CITY CLOUDY    58  38  47 S9        29.70F
LOS ANGELES CA CLOUDY    63  55  77 W24G32    29.96F
BOISE ID       PTSUNNY   58  27  30 NW14G29   29.78F
SEATTLE WA     PTSUNNY   54  36  50 SW8       29.99S
$$

*** WEATHER ACROSS MANITOBA...SASKATCHEWAN AND ONTARIO ***
                ***ONTARIO***

CITY           SKY/WX    TMP DP  RH WIND       PRES   REMARKS
GERALDTON      MOSUNNY   46  18  31 NE5       30.02F
THUNDER BAY    SUNNY     48  14  25 E10       30.03F
SIOUX LOOKOUT  MOSUNNY   52  19  28 VRB6      30.01F
TORONTO        MOSUNNY   52  28  40 NE7       29.82F
BIG TROUT LK   SUNNY     37  23  56 S6        30.14F
PICKLE LAKE    MOSUNNY   46  12  25 NE9       30.06F
DRYDEN         SUNNY     52  21  30 E5        30.00F
KENORA         SUNNY     55  30  38 SE12      29.98S
$$
                *** MANITOBA***

CITY           SKY/WX    TMP DP  RH WIND       PRES   REMARKS
BRANDON        PTSUNNY   61  39  44 E15       29.87S
DAUPHIN        PTSUNNY   57  37  47 E18       29.90F
ISLAND LAKE    MOSUNNY   54  21  28 SE8       30.08S
PILOT MOUND      N/A     57  37  47 SE15G21     N/A
THE PAS        CLOUDY    32  28  86 N9        30.07R WCI  24
THOMPSON       FLURRIES  32  28  86 N5        30.12S
WINNIPEG       PTSUNNY   61  36  39 SE17      29.93S
LYNN LAKE      SUNNY     39   9  28 NW7       30.11R
CHURCHILL      FLURRIES  30  14  51 SE14      30.23F WCI  20
GILLAM         CLOUDY    46  16  29 E7        30.12F
$$
                ***SASKATCHEWAN***

CITY           SKY/WX    TMP DP  RH WIND       PRES   REMARKS
ESTEVAN        CLOUDY    48  41  76 SE14G23   29.80S
KINDERSLEY     CLOUDY    32  28  86 NE13      29.87R WCI  22
LLOYDMINSTER   CLOUDY    34  19  55 NE12G18   29.96S
PRINCE ALBERT  LGT SNOW  34  28  80 NE16      29.99R WCI  23
REGINA         CLOUDY    46  43  87 E20G29    29.77F
YORKTON        PTSUNNY   50  37  62 NE10      29.87R
N. BATTLEFORD  CLOUDY    37  27  65 E13       29.95R
LA RONGE       PTSUNNY   37  12  35 NE8       30.09F
SASKATOON      SNOW      30  28  93 NE18G26   29.91R VSB 1/2 WCI  18
SWIFT CURRENT  CLOUDY    34  34 100 N13       29.77R WCI  25
$$
NOTE: THESE ARE AUTOMATED STATIONS WITH LIMITED QUALITY CONTROL
      "FAIR" INDICATES FEW OR NO CLOUDS BELOW 12,000 FEET WITH NO
      SIGNIFICANT WEATHER AND/OR OBSTRUCTIONS TO VISIBILITY.
      SKY/WX - SKY CONDITION AND SIGNIFICANT WEATHER.
      TMP - AIR TEMPERATURE.    DP   - DEWPOINT TEMPERATURE.
      RH  - RELATIVE HUMIDITY.  PRES - PRESSURE.
      HX  - HEAT INDEX.         WCI  - WIND CHILL INDEX.
$


USA.gov is the U.S. government's official web portal to all federal, state and local government web resources and services.